Kalaupapa Airport


Codes: PHLU/LUP
Name: Kalaupapa Airport
City: Kalaupapa
Country: United States
Elevation: 24 ft.
Wikipedia:

Photos at Kalaupapa Airport


   Photos courtesy of SpottingLog. You can add your own sightings and photos by signing up for a free trial today.



No photos found.

Weather at Kalaupapa Airport


Time (UTC)DescriptionTempratureWindCloud coverageVisibilityPressureHumidity
25-Jun-2024 15:00Few Clouds24°C20 mph, E22%10000m1017hPa75%
25-Jun-2024 18:00Few Clouds25°C20 mph, E13%10000m1018hPa72%
25-Jun-2024 21:00Few Clouds25°C18 mph, E22%10000m1018hPa71%
26-Jun-2024 00:00Few Clouds25°C18 mph, E14%10000m1017hPa71%
26-Jun-2024 03:00Clear Sky25°C16 mph, E0%10000m1017hPa73%
26-Jun-2024 06:00Clear Sky25°C16 mph, E1%10000m1018hPa75%
26-Jun-2024 09:00Clear Sky25°C16 mph, E1%10000m1018hPa74%
26-Jun-2024 12:00Light Rain24°C13 mph, E1%10000m1017hPa76%
26-Jun-2024 15:00Light Rain25°C13 mph, E14%10000m1017hPa73%
26-Jun-2024 18:00Light Rain25°C13 mph, E21%10000m1018hPa72%
26-Jun-2024 21:00Scattered Clouds25°C16 mph, E34%10000m1018hPa70%
27-Jun-2024 00:00Few Clouds25°C16 mph, E18%10000m1018hPa69%
27-Jun-2024 03:00Clear Sky25°C16 mph, E2%10000m1017hPa69%
27-Jun-2024 06:00Clear Sky25°C16 mph, E1%10000m1019hPa73%
27-Jun-2024 09:00Clear Sky25°C18 mph, E1%10000m1020hPa73%
27-Jun-2024 12:00Clear Sky24°C18 mph, E2%10000m1018hPa73%
27-Jun-2024 15:00Clear Sky24°C18 mph, E4%10000m1018hPa74%
27-Jun-2024 18:00Clear Sky24°C18 mph, E5%10000m1019hPa74%
27-Jun-2024 21:00Clear Sky25°C18 mph, E5%10000m1019hPa73%
28-Jun-2024 00:00Clear Sky25°C16 mph, E7%10000m1018hPa73%
28-Jun-2024 03:00Light Rain25°C16 mph, E5%10000m1017hPa71%
28-Jun-2024 06:00Clear Sky24°C18 mph, E4%10000m1018hPa72%
28-Jun-2024 09:00Clear Sky24°C18 mph, E2%10000m1019hPa72%
28-Jun-2024 12:00Clear Sky24°C18 mph, E2%10000m1017hPa74%
28-Jun-2024 15:00Clear Sky24°C16 mph, E3%10000m1017hPa75%
28-Jun-2024 18:00Clear Sky24°C13 mph, E8%10000m1018hPa76%
28-Jun-2024 21:00Clear Sky25°C13 mph, E8%10000m1017hPa73%
29-Jun-2024 00:00Clear Sky25°C16 mph, E8%10000m1016hPa75%
29-Jun-2024 03:00Light Rain24°C16 mph, E13%10000m1015hPa76%
29-Jun-2024 06:00Few Clouds24°C16 mph, E20%10000m1016hPa75%
29-Jun-2024 09:00Few Clouds24°C16 mph, E20%10000m1017hPa73%
29-Jun-2024 12:00Few Clouds24°C13 mph, E11%10000m1015hPa73%
29-Jun-2024 15:00Clear Sky24°C13 mph, E4%10000m1015hPa72%
29-Jun-2024 18:00Clear Sky24°C13 mph, E3%10000m1016hPa74%
29-Jun-2024 21:00Light Rain25°C16 mph, E13%10000m1016hPa69%
30-Jun-2024 00:00Clear Sky25°C16 mph, E8%10000m1016hPa69%
30-Jun-2024 03:00Clear Sky25°C16 mph, E5%10000m1015hPa70%
30-Jun-2024 06:00Clear Sky25°C18 mph, E5%10000m1017hPa71%
30-Jun-2024 09:00Clear Sky24°C18 mph, E6%10000m1018hPa75%
30-Jun-2024 12:00Light Rain24°C18 mph, E15%10000m1016hPa75%